Flag for Laos Weather past 2 weeks in Vientiane, Laos

Now
81 °F

Fog.


Feels Like: 87 °F
Forecast: 76 / 92 °F
Wind: 2 mph from North

Location: Vientiane Airport

Current Time: Aug 23, 2014 at 9:32:40 AM

Latest Report: Aug 23, 2014 at 9:00 AM


Visibility: 3 mi

Pressure: 29.86 "Hg

Humidity: 89%

Dew point: 77 °F

Location of VientianeLocation

Historic Weather in Vientiane — Graph

°F

Vientiane temperature yesterday

Maximum temperature yesterday: 84 °F (at 5:00 PM)
Minimum temperature yesterday: 75 °F (at 6:00 AM)
Average temperature yesterday: 80 °F

Past Weeks' High & Low Weather Summary

 TemperatureHumidityPressure
High93 °F (Aug 11, 3:00 PM)100% (Aug 9, 6:00 AM)29.92 "Hg (Aug 9, 6:00 AM)
Low75 °F (Aug 10, 6:00 AM)53% (Aug 11, 4:00 PM)29.56 "Hg (Aug 12, 4:00 PM)
Average83 °F82%29.74 "Hg
* Reported Aug 8 8:00 AM — Aug 23 8:00 AM, Vientiane, Weather by CustomWeather, © 2014

Note: Actual official high and low records may vary slightly from our data, if they occured in-between our weather recording intervals... More about our weather records

Advertising

Vientiane weather history for previous 24 hours

 ConditionsComfort  
Time TempWeatherWind HumidityBarometerVisibility
8:00 AM
Aug 23
79 °FFog.2 mph94%29.83 "Hg3 mi
7:30 AM79 °FFog.2 mph94%29.83 "Hg2 mi
7:00 AM79 °FFog.2 mph94%29.83 "Hg2 mi
6:30 AM79 °FFog.2 mph94%29.80 "Hg2 mi
6:00 AM79 °FFog.2 mph94%29.80 "Hg2 mi
10:30 PM
Aug 22
81 °FFog.2 mph89%29.83 "Hg2 mi
10:00 PM81 °FFog.2 mph89%29.83 "Hg2 mi
9:30 PM81 °FFog.2 mph89%29.80 "Hg2 mi
9:00 PM81 °FFog.2 mph89%29.80 "Hg2 mi
8:30 PM81 °FFog.2 mph89%29.77 "Hg2 mi
8:00 PM81 °FFog.2 mph89%29.77 "Hg2 mi
7:30 PM82 °FFog.2 mph84%29.77 "Hg2 mi
7:00 PM82 °FFog.2 mph84%29.77 "Hg3 mi
5:30 PM84 °FScattered clouds.2 mph74%29.74 "HgN/A
5:00 PM84 °FScattered clouds.2 mph74%29.74 "HgN/A
3:00 PM82 °FDrizzle. Broken clouds.2 mph79%29.80 "Hg4 mi
2:30 PM82 °FBroken clouds.2 mph79%29.80 "Hg4 mi
2:00 PM82 °FDrizzle. Broken clouds.2 mph79%29.80 "Hg4 mi
1:30 PM81 °FBroken clouds.2 mph84%29.83 "Hg4 mi
1:00 PM81 °FBroken clouds.2 mph84%29.83 "Hg4 mi
12:30 PM81 °FFog.2 mph84%29.83 "Hg3 mi
12:00 PM81 °FFog.2 mph84%29.83 "Hg3 mi
11:30 AM79 °FFog.2 mph89%29.86 "Hg2 mi
11:00 AM79 °FFog.2 mph89%29.86 "Hg2 mi
10:30 AM79 °FDrizzle. Partly sunny.2 mph89%29.86 "Hg2 mi
10:00 AM79 °FDrizzle. Partly sunny.2 mph89%29.86 "Hg2 mi
9:30 AM77 °FDrizzle. Partly sunny.2 mph89%29.86 "Hg2 mi
9:00 AM77 °FLight rain. Partly sunny.2 mph89%29.86 "Hg2 mi
Weather by CustomWeather, © 2014

See weather overviewHow to use our weather pages